Starlink 11489

operational
NORAD ID: 62271 Int'l Des: 2024-237 Owner: SPXS Country: US Constellation: starlink
LEOCIRCULAR

Starlink 11489について

説明を読み込み中...

リアルタイム位置

3D地球を読み込み中...

次回通過

高度履歴

Altitude vs Time

uPlot chart will show altitude changes over time

軌道要素

1 62271U 24237E 25354.51385418 .00230685 00000-0 17424-2 0 9994
2 62271 42.9990 174.4233 0001992 256.7727 103.2919 15.70968655 60591
Epoch: Dec 20, 2025 • Age: 14 hours

現在のステータス

高度 354.5 km
速度 7.70 km/s
衛星直下点 8.95°N, 150.37°W
打ち上げ日 Dec 8, 2024
運用期間 1 years
タイプ internet

技術仕様

分類 Payload
質量 960.00 kg
乾燥質量 910.00 kg
総質量 960.00 kg
長さ 0.30 m
直径 4.10 m
スパン 29.00 m
形状 Box + pan
製造者 SPXS
バスタイプ Starlink V2MD
フェーズステータス In Orbit
所有者/国 SPXS/US

大規模コンステレーション

Loading constellations...